Weather observations for the past three days for
Chase City Municipal Airport
Imperial (Metric)
Date Time (edt) Wind (mph) Vis. (mi.) Weather Sky Cond. Temperature (ºF) Relative Humidity Wind Chill (°F) Heat Index (°F) Pressure Precipitation (in)
Air Dwpt 6 hour altimeter (in) sea level (mb) 1 hr 3 hr 6 hr
Max. Min.
23 02:15 Calm 10.00 Overcast SCT010 BKN038 OVC044 73.9 73.9 100% 30.05 0.0
23 01:55 Calm 10.00 Mostly Cloudy SCT007 BKN038 73.9 73.9 79 73.9 100% 30.05 0.0
23 01:35 Calm 10.00 Overcast BKN007 OVC038 74.3 74.3 100% 30.04 0.0
23 01:15 Calm 10.00 Mostly Cloudy BKN007 74.3 74.3 100% 30.04 0.0
23 00:55 Calm 10.00 Mostly Cloudy BKN005 74.3 74.3 100% 30.04 0.0
23 00:35 S 3 10.00 Overcast OVC007 74.3 74.3 100% 30.04 0.0
23 00:15 SW 3 10.00 Overcast OVC007 74.3 74.3 100% 30.04 0.0
22 23:55 S 3 10.00 Overcast BKN007 BKN037 OVC080 74.3 74.3 100% 30.04 0.0
22 23:35 S 3 10.00 Overcast OVC007 74.3 74.3 100% 30.04 0.0
22 23:15 SE 5 10.00 Mostly Cloudy BKN007 74.3 74.3 100% 30.04 0.0
22 22:55 SE 3 10.00 Partly Cloudy SCT007 74.3 74.3 100% 30.04 0.0
22 22:35 SE 5 10.00 Fair CLR 74.3 74.3 100% 30.04 0.0
22 22:15 SE 5 10.00 Fair CLR 74.5 74.5 100% 30.04 0.0
22 21:55 SE 3 10.00 Fair CLR 74.7 74.7 100% 30.03 0.0
22 21:35 SE 3 10.00 Fair CLR 75.4 75.2 99% 73 30.02 0.0
22 21:15 SE 3 10.00 Fair CLR 75.7 75 98% 74 30.02 0.0
22 20:55 SE 5 10.00 Fair CLR 76.1 74.8 96% 76 30.01 0.0
22 20:35 S 6 10.00 Fair CLR 77 74.8 93% 78 30 0.0
22 20:15 SE 8 10.00 Fair CLR 78.1 75 90% 81 29.99 0.0
22 19:55 S 5 10.00 Fair CLR 79.3 76.3 83.5 79.3 90% 84 29.98 0.0
22 19:35 SE 6 10.00 Partly Cloudy SCT013 SCT028 79.9 76.1 88% 85 29.99 0.0
22 19:15 SE 6 10.00 Partly Cloudy SCT013 SCT028 80.8 75.7 85% 87 29.99 0.0
22 18:55 SE 6 10.00 Partly Cloudy SCT030 82 75.6 81% 89 29.99 0.0
22 18:35 SE 5 10.00 Fair CLR 81.5 75.6 82% 88 29.99 0.0
22 18:15 Calm 10.00 Fair CLR 81.1 75.4 83% 87 29.98 0.0
22 17:55 SE 6 10.00 Fair CLR 81.9 74.1 77% 88 29.99 0.0
22 17:35 S 7 10.00 Fair CLR 83.3 74.5 75% 90 29.98 0.0
22 17:15 S 5 10.00 Fair CLR 82.8 74.3 76% 89 29.98 0.0
22 16:55 S 5 10.00 Partly Cloudy SCT031 SCT039 SCT060 81 74.1 80% 86 29.98 0.0
22 16:35 S 3 10.00 Mostly Cloudy SCT029 SCT033 BKN039 80.2 74.3 82% 85 29.99 0.0
22 16:15 S 5 10.00 Partly Cloudy SCT031 SCT045 81.5 74.1 78% 87 30 0.0
22 15:55 S 3 10.00 Mostly Cloudy SCT027 BKN035 BKN045 83.3 74.1 74% 90 30 0.0
22 15:35 Calm 10.00 Mostly Cloudy SCT025 SCT035 BKN060 82.6 72.5 72% 88 30.01 0.0
22 15:15 Calm 10.00 Partly Cloudy SCT055 SCT085 83.5 73.8 73% 90 30.01 0.0
22 14:55 S 5 10.00 Mostly Cloudy SCT019 SCT025 BKN070 83.5 75.4 77% 91 30.01 0.0
22 14:35 Calm 10.00 Overcast SCT017 BKN025 OVC075 81.7 74.5 79% 88 30.02 0.0
22 14:15 S 3 10.00 Overcast BKN017 BKN025 OVC075 81.5 74.7 80% 88 30.03 0.0
22 13:55 SE 6 10.00 Overcast BKN014 OVC022 81.1 75.2 81.1 71.6 82% 87 30.04 0.0 0.06
22 13:35 Calm 10.00 Overcast BKN014 OVC022 79.7 74.8 85% 84 30.04 0.0
22 13:15 S 5 10.00 Overcast OVC014 78.3 74.7 89% 81 30.05 0.0
22 12:55 SE 5 10.00 Overcast OVC014 78.8 74.1 86% 82 30.06 0.0
22 12:35 S 3 10.00 Overcast OVC012 78.3 73.6 86% 81 30.06 0.0
22 12:15 S 6 10.00 Overcast BKN012 BKN065 OVC100 77.5 73.9 89% 79 30.06 0.0
22 11:55 SE 5 10.00 Overcast BKN008 OVC012 76.6 74.8 94% 77 30.07 0.0
22 11:35 S 3 10.00 Overcast BKN008 OVC012 75.2 75 99% 73 30.08 0.0
22 11:15 S 3 10.00 Overcast OVC008 75.2 75 99% 73 30.08 0.0
22 10:55 S 5 10.00 Overcast OVC008 74.7 74.7 100% 30.08 0.0 0.06
22 10:35 S 3 10.00 Overcast BKN008 BKN011 OVC030 74.7 74.7 100% 30.07 0.0
22 10:15 SE 3 10.00 Overcast BKN008 BKN013 OVC034 74.7 74.7 100% 30.07 0.0
22 09:55 Calm 10.00 Overcast BKN008 BKN037 OVC060 74.1 74.1 100% 30.08 0.0
22 09:35 Calm 10.00 Overcast BKN008 OVC040 73.4 73.4 100% 30.08 0.0
22 09:15 Calm 10.00 Overcast OVC006 72.9 72.9 100% 30.08 0.0
22 08:55 Calm 10.00 Overcast OVC004 72.7 72.7 100% 30.07 0.0 0.06
22 08:35 Calm 10.00 Overcast BKN004 BKN021 OVC036 72.1 72.1 100% 30.07 0.0 0.06
22 08:15 Calm 10.00 Overcast BKN036 BKN045 OVC060 71.6 71.6 100% 30.07 0.0 0.05
22 07:55 Calm 7.00 Overcast SCT006 BKN045 OVC060 71.6 71.6 75.9 70.3 100% 30.07 0.0 0.01 0.58
22 07:35 Calm 10.00 Overcast SCT003 BKN065 OVC090 71.4 71.4 100% 30.07 0.0
22 07:15 Calm 10.00 Mostly Cloudy BKN090 71.1 71.1 100% 30.05 0.0
22 06:55 Calm 10.00 Partly Cloudy SCT100 SCT120 71.1 71.1 100% 30.05 0.0 0.01
22 06:35 Calm 10.00 Mostly Cloudy SCT027 SCT041 BKN070 70.7 70.7 100% 30.04 0.0
22 06:15 Calm 10.00 Overcast BKN041 BKN055 OVC075 70.7 70.7 100% 30.05 0.0
22 05:55 Calm 10.00 Overcast SCT041 BKN075 OVC110 70.7 70.7 100% 30.05 0.0 0.01
22 05:35 Calm 10.00 Mostly Cloudy SCT090 BKN110 70.5 70.5 100% 30.04 0.0 0.01
22 05:15 Calm 10.00 Partly Cloudy SCT070 SCT090 70.7 70.7 100% 30.04 0.0
22 04:55 Calm 10.00 Mostly Cloudy SCT070 SCT090 BKN120 70.7 70.7 100% 30.04 0.0 0.03 0.55
22 04:35 Calm 10.00 Mostly Cloudy SCT048 SCT070 BKN120 70.7 70.7 100% 30.05 0.0 0.03
22 04:15 Calm 7.00 Mostly Cloudy SCT038 BKN048 BKN065 71.2 71.2 100% 30.07 0.0 0.03
22 03:55 Calm 10.00 Mostly Cloudy SCT050 SCT085 BKN110 71.8 71.8 100% 30.07 0.0 0.14
22 03:35 SW 3 10.00 Overcast SCT007 BKN055 OVC110 72.1 72.1 100% 30.06 0.0 0.14
22 03:15 SE 7 4.00 Overcast SCT007 BKN016 OVC035 71.8 71.8 100% 30.06 0.0 0.13
22 02:55 S 14 G 24 1.25 Overcast BKN009 BKN014 OVC021 74.1 73.9 99% 30.05 0.0 0.25
22 02:35 SE 5 10.00 Mostly Cloudy SCT023 SCT033 BKN041 75.7 75.4 99% 74 30.04 0.0
22 02:15 SE 3 10.00 Overcast SCT035 OVC060 75.6 75.4 99% 74 30.05 0.0
22 01:55 Calm 10.00 Mostly Cloudy SCT060 BKN070 BKN090 75.2 75.2 79.2 74.8 100% 73 30.04 0.0
22 01:35 Calm 10.00 Partly Cloudy SCT100 75.2 75.2 100% 73 30.05 0.0
22 01:15 SE 3 10.00 Fair CLR 75.2 75.2 100% 73 30.06 0.0
22 00:55 Calm 10.00 Fair CLR 75.2 75.2 100% 73 30.06 0.0
22 00:35 Calm 10.00 Partly Cloudy SCT041 75.4 75.2 99% 73 30.07 0.0
22 00:15 SE 3 10.00 Mostly Cloudy BKN043 75.9 75.2 98% 75 30.07 0.0
21 23:55 Calm 10.00 Partly Cloudy SCT043 75.9 75.2 98% 75 30.07 0.0
21 23:35 SE 3 10.00 Fair CLR 75.4 75.2 99% 73 30.07 0.0
21 23:15 Calm 10.00 Fair CLR 75.7 75.4 99% 74 30.07 0.0
21 22:55 Calm 10.00 Fair CLR 76.1 75.2 97% 75 30.07 0.0
21 22:35 Calm 10.00 Fair CLR 75.4 75.4 100% 73 30.07 0.0
21 22:15 Calm 10.00 Fair CLR 75.4 75.4 100% 73 30.07 0.0
21 21:55 Calm 10.00 Fair CLR 75 75 100% 72 30.07 0.0
21 21:35 Calm 10.00 Fair CLR 75.6 75.4 99% 74 30.07 0.0
21 21:15 Calm 7.00 Fair CLR 76.1 75.7 99% 75 30.07 0.0
21 20:55 Calm 7.00 Fair CLR 76.1 75.6 98% 75 30.06 0.0
21 20:35 Calm 4.00 Fair CLR 76.5 76.3 99% 76 30.04 0.0
21 20:15 Calm 10.00 Fair CLR 78.1 74.1 88% 81 30.04 0.0
21 19:55 Calm 10.00 Fair CLR 79 74.5 87.4 79 86% 83 30.03 0.0
21 19:35 Calm 10.00 Fair CLR 80.8 72.9 77% 85 30.03 0.0
21 19:15 SE 3 10.00 Fair CLR 84.4 70.9 64% 89 30.02 0.0
21 18:55 Calm 10.00 Fair CLR 85.1 70 61% 90 30.03 0.0
21 18:15 Calm 10.00 Fair CLR 85.8 68.2 56% 89 30.03 0.0
21 17:35 S 5 10.00 Fair CLR 86.7 68.9 55% 91 30.04 0.0
21 16:55 S 6 10.00 Partly Cloudy SCT040 SCT046 86.9 70 57% 92 30.04 0.0
21 16:35 Calm 10.00 Partly Cloudy SCT038 86.9 70.3 58% 92 30.04 0.0
21 16:15 E 5 10.00 Partly Cloudy SCT038 86.7 70.3 58% 92 30.04 0.0
21 15:55 S 5 10.00 Partly Cloudy SCT037 87.1 70.3 58% 92 30.05 0.0
21 15:35 Calm 10.00 Partly Cloudy SCT039 86.4 69.1 56% 91 30.05 0.0
21 15:15 SE 3 10.00 Partly Cloudy SCT039 87.1 69.8 57% 92 30.06 0.0
21 14:55 S 3 10.00 Partly Cloudy SCT039 SCT044 87.1 70.2 57% 92 30.06 0.0
21 14:35 SW 3 10.00 Partly Cloudy SCT036 SCT043 86 71.6 62% 92 30.07 0.0
21 14:15 Calm 10.00 Partly Cloudy SCT036 SCT042 85.5 70.2 60% 90 30.07 0.0
21 13:55 Calm 10.00 Partly Cloudy SCT034 SCT042 84 70 85.3 71.6 63% 88 30.07 0.0
21 13:35 Calm 10.00 Fair CLR 84 70.2 63% 88 30.08 0.0
21 13:15 Calm 10.00 Partly Cloudy SCT033 SCT120 84.4 71.1 64% 89 30.09 0.0
21 12:55 Calm 10.00 Mostly Cloudy SCT031 BKN120 84.2 69.4 61% 88 30.09 0.0
21 12:35 Calm 10.00 Mostly Cloudy BKN120 83.5 70.5 65% 88 30.09 0.0
21 12:15 SE 5 10.00 Mostly Cloudy SCT026 BKN120 83.3 71.2 67% 88 30.1 0.0
21 11:55 S 5 10.00 Mostly Cloudy SCT026 BKN120 83.1 72 69% 88 30.09 0.0
21 11:35 Calm 10.00 Mostly Cloudy BKN120 81.5 72.7 75% 86 30.09 0.0
21 11:15 S 3 10.00 Partly Cloudy SCT120 80.6 72 75% 85 30.09 0.0
21 10:55 SE 5 10.00 Fair CLR 79.9 71.4 75% 83 30.09 0.0
21 10:35 SE 3 10.00 Fair CLR 79.5 71.8 77% 83 30.08 0.0
21 10:15 Calm 10.00 Fair CLR 79 71.2 77% 82 30.09 0.0
21 09:55 Calm 10.00 Fair CLR 77.7 72.1 83% 80 30.09 0.0
21 09:35 Calm 10.00 Fair CLR 77.2 72.9 87% 79 30.09 0.0
21 09:15 Calm 10.00 Fair CLR 75.7 73.4 92% 75 30.09 0.0
21 08:55 Calm 10.00 Fair CLR 74.7 73.2 95% 30.09 0.0
21 08:35 NW 3 10.00 Fair CLR 74.1 73.9 99% 30.09 0.0
21 08:15 Calm 10.00 Fair CLR 72.7 72.7 100% 30.09 0.0
21 07:55 Calm 10.00 Partly Cloudy SCT002 71.2 71.2 71.2 68.4 100% 30.08 0.0
21 07:35 Calm 7.00 Mostly Cloudy BKN002 70.7 70.7 100% 30.08 0.0
21 07:15 Calm 7.00 Mostly Cloudy BKN002 70.2 70.2 100% 30.08 0.0
21 06:35 Calm 7.00 Partly Cloudy SCT002 70 70 100% 30.07 0.0
21 06:15 Calm 7.00 Fair CLR 70.2 70.2 100% 30.07 0.0
21 05:55 Calm 10.00 Fair CLR 70.3 70.3 100% 30.06 0.0
21 05:35 Calm 10.00 Fair CLR 70 70 100% 30.06 0.0
21 05:15 Calm 10.00 Fair CLR 69.6 69.6 100% 30.06 0.0
21 04:55 Calm 7.00 Partly Cloudy SCT001 69.3 69.3 100% 30.05 0.0
21 04:35 Calm 5.00 Mostly Cloudy BKN001 69.3 69.3 100% 30.05 0.0
21 04:15 Calm 2.50 Overcast OVC001 68.9 68.9 100% 30.06 0.0
21 03:55 Calm 7.00 Mostly Cloudy BKN001 69.1 69.1 100% 30.06 0.0
21 03:35 Calm 3.00 Mostly Cloudy BKN001 68.9 68.9 100% 30.06 0.0
21 03:15 Calm 4.00 Mostly Cloudy BKN001 68.9 68.9 100% 30.05 0.0
21 02:55 Calm 5.00 Partly Cloudy SCT001 69.3 69.3 100% 30.06 0.0
21 02:35 Calm 7.00 Partly Cloudy SCT001 69.1 69.1 100% 30.06 0.0
21 02:15 Calm 7.00 Fair CLR 69.8 69.8 100% 30.07 0.0
21 01:55 Calm 7.00 Fair CLR 70.7 70.7 74.3 70.2 100% 30.07 0.0
21 01:35 Calm 7.00 Partly Cloudy SCT002 70.3 70.3 100% 30.07 0.0
21 01:15 Calm 3.00 Partly Cloudy SCT002 70.7 70.7 100% 30.07 0.0
21 00:55 Calm 7.00 Fair CLR 70.5 70.5 100% 30.07 0.0
21 00:35 Calm 10.00 Fair CLR 70.9 70.9 100% 30.08 0.0
20 23:55 Calm 5.00 Fair CLR 70.7 70.7 100% 30.08 0.0
20 23:35 Calm 7.00 Fair CLR 71.2 71.2 100% 30.07 0.0
20 23:15 Calm 7.00 Fair CLR 71.6 71.6 100% 30.07 0.0
20 22:55 Calm 10.00 Fair CLR 71.6 71.6 100% 30.07 0.0
20 22:35 Calm 10.00 Fair CLR 72 72 100% 30.08 0.0
20 22:15 Calm 10.00 Fair CLR 72.5 72.5 100% 30.08 0.0
20 21:55 Calm 10.00 Fair CLR 72.5 72.5 100% 30.08 0.0
20 21:35 Calm 10.00 Fair CLR 72.5 72.5 100% 30.08 0.0
20 21:15 Calm 10.00 Fair CLR 72.9 72.9 100% 30.08 0.0
20 20:55 Calm 10.00 Fair CLR 73.4 73.4 100% 30.08 0.0
20 20:35 Calm 10.00 Fair CLR 73.6 73.6 100% 30.07 0.0
20 20:15 Calm 10.00 Fair CLR 73.6 73.6 100% 30.08 0.0
20 19:55 Calm 10.00 Fair CLR 74.7 74.7 78.8 72.9 100% 30.08 0.0 0.13
20 19:35 Calm 10.00 Mostly Cloudy SCT029 SCT044 BKN070 75.6 74.5 96% 74 30.07 0.0
20 19:15 Calm 10.00 Overcast SCT047 SCT060 OVC070 76.3 72.3 88% 77 30.07 0.0
20 18:55 Calm 5.00 Partly Cloudy SCT070 76.1 73.6 92% 76 30.06 0.0
20 18:35 Calm 10.00 Fair CLR 76.5 72.7 88% 77 30.06 0.0
20 18:15 NE 3 10.00 Fair CLR 76.8 72 85% 78 30.05 0.0
20 17:55 Calm 10.00 Fair CLR 77.2 72.1 85% 79 30.06 0.0
20 17:35 NE 5 10.00 Partly Cloudy SCT019 SCT029 77.2 72 84% 79 30.06 0.0
20 17:15 NE 5 10.00 Mostly Cloudy SCT017 BKN029 BKN070 77 73 88% 78 30.07 0.0
20 16:55 NE 5 10.00 Overcast BKN017 OVC070 78.4 72.9 83% 81 30.07 0.0 0.13
20 16:35 NW 5 10.00 Overcast SCT017 OVC070 77.4 72.5 85% 79 30.07 0.0
20 16:15 N 5 10.00 Overcast BKN013 BKN019 OVC070 77 73.9 90% 78 30.07 0.0
20 15:55 N 8 10.00 Mostly Cloudy BKN010 BKN016 77.7 75.2 92% 80 30.07 0.0 0.01
20 15:35 N 7 10.00 Mostly Cloudy BKN008 BKN014 BKN029 76.5 75.9 98% 76 30.07 0.0 0.01
20 15:15 N 3 10.00 Overcast BKN008 BKN032 OVC070 73.8 73.8 100% 30.07 0.0 0.01
20 14:55 Calm 10.00 Overcast SCT008 BKN040 OVC110 73.4 73.4 100% 30.08 0.0 0.11
20 14:35 Calm 10.00 Overcast SCT006 BKN047 OVC100 73.2 73.2 100% 30.08 0.0 0.1
20 14:15 Calm 3.00 Overcast SCT006 BKN009 OVC050 72.9 72.9 100% 30.09 0.0 0.09
20 13:55 W 5 1.75 Overcast BKN006 OVC013 73.9 73.9 77.2 72.1 100% 30.09 0.0 0.17 0.41
20 13:35 Calm 10.00 Overcast BKN013 BKN019 OVC070 76.1 75.9 99% 75 30.08 0.0 0.01
20 13:15 N 3 10.00 Overcast SCT007 BKN026 OVC085 76.8 75.7 96% 77 30.09 0.0
20 12:55 N 5 10.00 Overcast BKN007 BKN024 OVC038 75.7 75.7 100% 74 30.09 0.0 0.01
20 12:35 N 3 7.00 Overcast SCT007 BKN030 OVC055 74.8 74.8 100% 30.09 0.0 0.01
20 12:15 Calm 7.00 Overcast SCT005 BKN030 OVC041 73.8 73.8 100% 30.09 0.0
20 11:55 Calm 5.00 Overcast BKN019 BKN028 OVC033 72.9 72.9 100% 30.1 0.0 0.18
20 11:35 NW 3 3.00 Overcast SCT019 BKN025 OVC035 72.9 72.9 100% 30.1 0.0 0.12
20 11:15 Calm 5.00 Overcast SCT005 BKN026 OVC035 72.5 72.5 100% 30.1 0.0 0.03
20 10:55 W 7 2.50 Overcast BKN005 OVC009 72.5 72.5 100% 30.1 0.0 0.04 0.04
20 10:35 Calm 10.00 Overcast OVC009 74.8 74.8 100% 30.1 0.0
20 10:15 SE 3 10.00 Overcast BKN009 OVC014 74.5 74.5 100% 30.1 0.0
20 09:55 E 3 10.00 Overcast OVC009 75.2 75 99% 73 30.11 0.0
20 09:35 E 3 10.00 Overcast OVC007 74.7 74.7 100% 30.11 0.0
20 09:15 Calm 10.00 Overcast OVC005 74.3 74.3 100% 30.11 0.0
20 08:55 Calm 10.00 Overcast OVC005 73.8 73.8 100% 30.11 0.0
20 08:35 Calm 5.00 Overcast OVC003 73.4 73.4 100% 30.11 0.0
20 08:15 E 3 7.00 Overcast OVC003 72.9 72.9 100% 30.11 0.0
20 07:55 Calm 5.00 Overcast OVC003 72.7 72.7 72.7 71.6 100% 30.1 0.0
20 07:35 Calm 4.00 Overcast OVC003 72.1 72.1 100% 30.1 0.0
20 07:15 Calm 4.00 Overcast OVC003 72.1 72.1 100% 30.1 0.0
20 06:55 Calm 5.00 Overcast OVC003 72 72 100% 30.1 0.0
20 06:35 Calm 5.00 Overcast OVC003 71.8 71.8 100% 30.1 0.0
20 06:15 Calm 7.00 Overcast OVC003 71.8 71.8 100% 30.1 0.0
20 05:55 Calm 7.00 Overcast OVC003 71.8 71.8 100% 30.1 0.0
20 05:35 E 3 7.00 Overcast OVC003 71.8 71.8 100% 30.09 0.0
20 05:15 Calm 7.00 Overcast SCT003 SCT020 OVC100 71.6 71.6 100% 30.09 0.0
20 04:55 Calm 10.00 Overcast SCT020 BKN038 OVC110 71.6 71.6 100% 30.09 0.0
20 04:35 Calm 10.00 Overcast SCT020 OVC038 71.8 71.8 100% 30.08 0.0
20 04:15 Calm 10.00 Overcast SCT018 OVC038 71.6 71.6 100% 30.09 0.0
20 03:55 Calm 10.00 Overcast SCT008 BKN020 OVC036 71.6 71.6 100% 30.09 0.0
20 03:35 Calm 10.00 Overcast BKN008 OVC020 71.8 71.8 100% 30.1 0.0
20 03:15 Calm 10.00 Overcast BKN008 OVC018 71.8 71.8 100% 30.1 0.0
20 02:55 Calm 10.00 Overcast BKN008 OVC022 71.8 71.8 100% 30.1 0.0
20 02:35 Calm 10.00 Overcast BKN012 OVC020 71.6 71.6 100% 30.1 0.0
Date Time (edt) Wind (mph) Vis. (mi.) Weather Sky Cond. Air Dwpt Max. Min. Relative Humidity Wind Chill (°F) Heat Index (°F) altimeter (in) sea level (mb) 1 hr 3 hr 6 hr
6 hour
Temperature (ºF) Pressure Precipitation (in)